Regional Weather Roundup
Issued by NWS

Home | Current Version | Previous Version | Text Only | Print | Product List | Glossary On
Versions: 1 2 3 4 5 6 7 8 9 10 11 12 13 14 15 16 17 18 19 20 21 22 23 24 25 26 27 28 29 30 31 32 33 34 35 36 37 38 39 40 41 42 43 44 45 46 47 48 49 50
000
ASUS43 KOAX 051010
RWRNE

WEATHER ROUNDUP FOR NEBRASKA
NATIONAL WEATHER SERVICE OMAHA NE
500 AM CDT THU MAY 05 2016

NOTES: SATELLITE DATA IS BEING USED TO AUGMENT CLOUD COVER ABOVE
       12000 FEET.
       "FAIR" INDICATES FEW OR NO CLOUDS BELOW 12,000 FEET WITH NO
       SIGNIFICANT WEATHER AND/OR OBSTRUCTIONS TO VISIBILITY.

  * THESE STATIONS DO NOT REPORT WEATHER SUCH AS RAIN...SNOW OR FOG.

NEZ001>004-019>022-054>056-051100-
NEBRASKA PANHANDLE

CITY           SKY/WX    TMP DP  RH WIND       PRES   REMARKS
SCOTTSBLUFF    CLEAR     48  40  73 E7        30.06F
ALLIANCE       CLEAR     42  39  89 SE6       30.06S
CHADRON        CLEAR     49  41  74 SW5       30.00F
KIMBALL        CLEAR     46  39  76 SW6       30.11F
SIDNEY         CLEAR     50  41  71 SW13      30.09F
$$

NEZ057>060-069>072-079>082-051100-
SOUTHWEST NEBRASKA

CITY           SKY/WX    TMP DP  RH WIND       PRES   REMARKS
NORTH PLATTE   CLEAR     39  36  89 E3        30.09S
IMPERIAL       CLEAR     47  41  80 CALM      30.09S
LEXINGTON      CLEAR     41  38  87 CALM      30.10R
MCCOOK         CLEAR     44  40  85 CALM      30.09S
OGALLALA       CLEAR     48  39  71 S3        30.07F
$$

NEZ005>010-023>029-035>040-094-051100-
NORTH CENTRAL NEBRASKA

CITY           SKY/WX    TMP DP  RH WIND       PRES   REMARKS
VALENTINE      CLEAR     50  37  61 S3        30.05F
AINSWORTH      CLEAR     43  37  77 S6        30.07S
BROKEN BOW     PTCLDY    39  36  89 CALM      30.08S
O`NEILL        CLEAR     47  43  85 W5        30.06S
ORD            CLEAR     38  36  92 CALM      30.07S
THEDFORD       CLEAR     44  38  79 CALM      30.08F
$$

NEZ041-046>049-061>064-073>077-083>087-051100-
SOUTH CENTRAL NEBRASKA

CITY           SKY/WX    TMP DP  RH WIND       PRES   REMARKS
GRAND ISLAND   CLEAR     41  36  82 W5        30.08S
AURORA         CLEAR     42  35  76 W6        30.07S
HASTINGS       PTCLDY    43  35  73 CALM      30.07S
HEBRON         CLEAR     42  37  80 CALM      30.07S
HOLDREGE       CLEAR     41  37  84 CALM      30.09S
KEARNEY *      PTCLDY    45  36  70 W3        30.10R
YORK           CLEAR     39  36  87 W5        30.07R
$$

NEZ011>018-030>034-042>045-051100-
NORTHEAST NEBRASKA

CITY           SKY/WX    TMP DP  RH WIND       PRES   REMARKS
NORFOLK        CLEAR     43  36  76 W5        30.05R
ALBION         CLEAR     37  33  88 NW3       30.06S
BLAIR          CLEAR     48  38  67 N6        30.03R
COLUMBUS *     CLEAR     39  30  70 CALM      30.06R
FREMONT        CLEAR     41  39  90 W6        30.04S
TEKAMAH        CLEAR     44  39  82 CALM      30.03R
WAYNE          CLEAR     37  35  90 CALM      30.05S
$$

NEZ050>053-065>068-078-088>093-051100-
SOUTHEAST NEBRASKA

CITY           SKY/WX    TMP DP  RH WIND       PRES   REMARKS
LINCOLN        CLEAR     46  40  79 CALM      30.06R
OMAHA EPPLEY   CLEAR     45  42  89 N3        30.03R
BEATRICE       CLEAR     42  39  88 W3        30.05S
FALLS CITY     CLEAR     45  39  79 W6        30.02R
NEBRASKA CITY  CLEAR     49  37  62 NW8       30.03R
PLATTSMOUTH    CLEAR     48  40  75 W5        30.03R
$$

NEZ044-045-051>053-067-051100-
OMAHA AREA

CITY           SKY/WX    TMP DP  RH WIND       PRES   REMARKS
OMAHA EPPLEY   CLEAR     45  42  89 N3        30.03R
BLAIR          CLEAR     48  38  67 N6        30.03R
FREMONT        CLEAR     41  39  90 W6        30.04S
MILLARD        CLEAR     45  42  88 CALM      30.03S
OFFUTT AFB     CLEAR     45  41  86 NW7       30.02R
PLATTSMOUTH    CLEAR     48  40  75 W5        30.03R
WAHOO          FAIR      45  37  73 NW5       30.04S
$$




USA.gov is the U.S. government's official web portal to all federal, state and local government web resources and services.